Radioactive Concentration measured by Seawater Radiation Monitor near Fukushima Daiichi Nuclear Power Station
Date,Time,Cs137(Bq/L),Cs134(Bq/L),Total β(Bq/L)
2016/10/10,00:00,1.2,0.12,ND
2016/10/10,00:10,1.2,0.12,ND
2016/10/10,00:20,1.2,0.12,ND
2016/10/10,00:30,1.2,0.12,ND
2016/10/10,00:40,1.2,0.12,ND
2016/10/10,00:50,1.2,0.12,ND
2016/10/10,01:00,1.2,0.12,ND
2016/10/10,01:10,1.2,0.12,ND
2016/10/10,01:20,1.2,0.13,ND
2016/10/10,01:30,1.2,0.12,ND
2016/10/10,01:40,1.2,0.12,ND
2016/10/10,01:50,1.2,0.14,ND
2016/10/10,02:00,1.2,0.14,ND
2016/10/10,02:10,1.2,0.14,ND
2016/10/10,02:20,1.2,0.13,ND
2016/10/10,02:30,1.2,0.12,ND
2016/10/10,02:40,1.2,0.12,ND
2016/10/10,02:50,1.1,0.11,ND
2016/10/10,03:00,1.1,0.11,ND
2016/10/10,03:10,1.1,0.11,ND
2016/10/10,03:20,1.2,0.11,ND
2016/10/10,03:30,1.2,0.12,ND
2016/10/10,03:40,1.2,0.12,ND
2016/10/10,03:50,1.2,0.12,ND
2016/10/10,04:00,1.2,0.11,ND
2016/10/10,04:10,1.2,0.11,ND
2016/10/10,04:20,1.1,0.12,ND
2016/10/10,04:30,1.1,0.12,ND
2016/10/10,04:40,1.1,0.12,ND
2016/10/10,04:50,1.1,0.13,ND
2016/10/10,05:00,1.1,0.13,ND
2016/10/10,05:10,1.1,0.13,ND
2016/10/10,05:20,1.2,0.12,ND
2016/10/10,05:30,1.2,0.12,ND
2016/10/10,05:40,1.2,0.12,ND
2016/10/10,05:50,1.2,0.11,ND
2016/10/10,06:00,1.2,0.11,ND
2016/10/10,06:10,1.2,0.11,ND
2016/10/10,06:20,1.1,0.11,ND
2016/10/10,06:30,1.2,0.11,ND
2016/10/10,06:40,1.2,0.11,ND
2016/10/10,06:50,1.2,0.11,ND
2016/10/10,07:00,1.2,0.12,ND
2016/10/10,07:10,1.2,0.11,ND
2016/10/10,07:20,1.2,0.11,ND
2016/10/10,07:30,1.2,0.11,ND
2016/10/10,07:40,1.2,0.11,ND
2016/10/10,07:50,1.2,0.12,ND
2016/10/10,08:00,1.2,0.12,ND
2016/10/10,08:10,1.2,0.13,ND
2016/10/10,08:20,1.2,0.13,ND
2016/10/10,08:30,1.2,0.13,ND
2016/10/10,08:40,1.2,0.13,ND
2016/10/10,08:50,1.2,0.13,ND
2016/10/10,09:00,1.2,0.12,ND
2016/10/10,09:10,1.2,0.12,ND
2016/10/10,09:20,1.2,0.12,ND
2016/10/10,09:30,1.2,0.12,ND
2016/10/10,09:40,1.2,0.13,ND
2016/10/10,09:50,1.1,0.13,ND
2016/10/10,10:00,1.1,0.13,ND
2016/10/10,10:10,1.1,0.12,ND
2016/10/10,10:20,1.2,0.13,ND
2016/10/10,10:30,1.1,0.12,ND
2016/10/10,10:40,1.1,0.12,ND
2016/10/10,10:50,1.2,0.12,ND
2016/10/10,11:00,1.2,0.12,ND
2016/10/10,11:10,1.1,0.13,ND
2016/10/10,11:20,1.1,0.13,ND
2016/10/10,11:30,1.1,0.14,ND
2016/10/10,11:40,1.2,0.13,ND
2016/10/10,11:50,1.2,0.12,ND
2016/10/10,12:00,1.2,0.12,ND
2016/10/10,12:10,1.2,0.11,ND
2016/10/10,12:20,1.2,0.10,ND
2016/10/10,12:30,1.2,0.097,ND
2016/10/10,12:40,1.2,0.10,ND
2016/10/10,12:50,1.2,0.11,ND
2016/10/10,13:00,1.2,0.12,ND
2016/10/10,13:10,1.2,0.12,ND
2016/10/10,13:20,1.2,0.12,ND
2016/10/10,13:30,1.1,0.13,ND
2016/10/10,13:40,1.1,0.12,ND
2016/10/10,13:50,1.2,0.12,ND
2016/10/10,14:00,1.2,0.12,ND
2016/10/10,14:10,1.2,0.12,ND
2016/10/10,14:20,1.2,0.11,ND
2016/10/10,14:30,1.2,0.12,ND
2016/10/10,14:40,1.2,0.12,ND
2016/10/10,14:50,1.2,0.12,ND
2016/10/10,15:00,1.2,0.12,ND
2016/10/10,15:10,1.1,0.12,ND
2016/10/10,15:20,1.1,0.12,ND
2016/10/10,15:30,1.2,0.11,ND
2016/10/10,15:40,1.1,0.12,ND
2016/10/10,15:50,1.2,0.12,ND
2016/10/10,16:00,1.2,0.11,ND
2016/10/10,16:10,1.2,0.10,ND
2016/10/10,16:20,1.2,0.12,ND
2016/10/10,16:30,1.2,0.13,ND
2016/10/10,16:40,1.2,0.12,ND
2016/10/10,16:50,1.2,0.12,ND
2016/10/10,17:00,1.2,0.13,ND
2016/10/10,17:10,1.2,0.12,ND
2016/10/10,17:20,1.2,0.11,ND
2016/10/10,17:30,1.2,0.11,ND
2016/10/10,17:40,1.2,0.11,ND
2016/10/10,17:50,1.2,0.11,ND
2016/10/10,18:00,1.2,0.12,ND
2016/10/10,18:10,1.2,0.12,ND
2016/10/10,18:20,1.2,0.12,ND
2016/10/10,18:30,1.2,0.11,ND
2016/10/10,18:40,1.2,0.10,ND
2016/10/10,18:50,1.2,0.11,ND
2016/10/10,19:00,1.2,0.099,ND
2016/10/10,19:10,1.2,0.096,ND
2016/10/10,19:20,1.2,0.096,ND
2016/10/10,19:30,1.2,0.097,ND
2016/10/10,19:40,1.2,0.11,ND
2016/10/10,19:50,1.2,0.11,ND
2016/10/10,20:00,1.2,0.11,ND
2016/10/10,20:10,1.2,0.12,ND
2016/10/10,20:20,1.2,0.12,ND
2016/10/10,20:30,1.2,0.12,ND
2016/10/10,20:40,1.2,0.11,ND
2016/10/10,20:50,1.2,0.11,ND
2016/10/10,21:00,1.2,0.12,ND
2016/10/10,21:10,1.2,0.11,ND
2016/10/10,21:20,1.2,0.11,ND
2016/10/10,21:30,1.2,0.12,ND
2016/10/10,21:40,1.2,0.13,ND
2016/10/10,21:50,1.2,0.13,ND
2016/10/10,22:00,1.2,0.12,ND
2016/10/10,22:10,1.2,0.12,ND
2016/10/10,22:20,1.2,0.12,ND
2016/10/10,22:30,1.2,0.12,ND
2016/10/10,22:40,1.2,0.11,ND
2016/10/10,22:50,1.2,0.11,ND
2016/10/10,23:00,1.2,0.12,ND
2016/10/10,23:10,1.2,0.12,ND
2016/10/10,23:20,1.2,0.12,ND
2016/10/10,23:30,1.2,0.12,ND
2016/10/10,23:40,1.2,0.13,ND
2016/10/10,23:50,1.2,0.13,ND
